Location: Creston
(40.9870°N, 81.8938°W)
Time: 07:37:51
(UTC+00:00)

Cosmos 292 Rocket - Pass Details

Date: 29 October 2020
Orbit: 672 x 695 km, 74.0° (Epoch: 28 November)

Event Time Altitude Azimuth Distance (km) Brightness Sun altitude
Rises 22:44:24 0° 200° (SSW) 3,022 7.6 -4.1°
Reaches altitude 10° 22:46:41 10° 202° (SSW) 2,115 6.8 -4.5°
Maximum altitude 22:51:27 81° 290° (WNW) 699 4.0 -5.4°
Drops below altitude 10° 22:56:18 10° 17° (NNE) 2,145 6.0 -6.3°
Sets 22:58:38 0° 19° (NNE) 3,069 6.8 -6.7°
